Location: Marcé
(47.5801°N, 0.3280°W)
Time: 09:02:00
(UTC+01:00)

Vanguard 1 - Pass Details

Date: 05 December 2021
Orbit: 652 x 3830 km, 34.2° (Epoch: 16 January)

Event Time Altitude Azimuth Distance (km) Brightness Sun altitude
Exits shadow 02:23:02 38° 122° (ESE) 4,506 13.2 -58.9°
Drops below altitude 10° 02:32:47 10° 102° (ESE) 5,767 14.1 -57.7°
Sets 02:36:36 0° 98° (E) 6,441 14.5 -57.2°
